Simultaneous Nadir Overpasses (SNOs) Predictions

Prediction of SNOs over PacNW region [( 10.00, 139.50) to ( 22.70, 165.60)] between AQUA and NPP Satellites:

Table of predicted SNOs over PacNW region for the next 30.0 days since TLE Epoch: 7/8/2012
Index Date (AQUA) Time (AQUA) AQUA Lat,Lon Date (NPP) Time (NPP) NPP Lat,Lon Distance(km) Time Diff (sec)
1 07/13/2012 15:11:00 19.38, 159.01 07/13/2012 15:10:05 19.91, 156.47 271.64 55
2 07/21/2012 15:59:31 22.62, 147.40 07/21/2012 15:59:56 23.24, 144.59 295.79 25
3 07/29/2012 15:10:39 20.14, 159.19 07/29/2012 15:09:57 20.65, 156.61 274.48 42




NCC Satellite Simultaneous Nadir Overpasses (SNOs) Prediction Service
